QPF
0.00 0.00 0.00 0.00 0.00 0.00 0.00 0.00 0.00 0.00 0.00 0.00 0.00 0.00 0.00 0.00 0.00 0.00 0.00 0.00 0.01 0.01 0.01 0.00 0.00 0.00 0.00 0.00 0.01 0.01 0.01 0.01 0.01 0.00 0.00 0.00 0.00 0.01 0.01 0.01 0.01 0.01 0.00
0.00 0.00 0.00 0.00 0.00 0.00 0.00 0.00 0.00 0.00 0.00 0.00 0.00 0.00 0.00 0.00 0.00 0.01 0.01 0.00 0.01 0.02 0.02 0.01 0.00 0.00 0.00 0.01 0.01 0.00 0.01 0.01 0.00 0.01 0.01 0.00 0.00 0.01 0.01 0.01 0.00 0.00 0.00
0.00 0.00 0.00 0.00 0.00 0.00 0.00 0.00 0.00 0.00 0.00 0.00 0.00 0.00 0.00 0.00 0.00 0.00 0.01 0.00 0.00 0.00 0.00 0.00 0.00 0.00 0.00 0.01 0.01 0.00 0.00 0.00 0.00 0.00 0.00 0.00 0.01 0.01 0.01 0.01 0.00 0.00 0.00
0.00 0.00 0.00 0.00 0.00 0.00 0.00 0.00 0.00 0.00 0.00 0.00 0.00 0.00 0.00 0.00 0.00 0.00 0.00 0.00 0.00 0.00 0.00 0.00 0.00 0.00 0.00 0.01 0.02 0.00 0.00 0.00 0.00 0.00 0.00 0.00 0.00 0.00 0.00 0.00 0.00 0.00 0.00
0.00 0.00 0.00 0.00 0.00 0.00 0.00 0.00 0.00 0.00 0.00 0.00 0.00 0.00 0.00 0.00 0.00 0.00 0.00 0.00 0.00 0.00 0.00 0.00 0.00 0.00 0.00 0.00 0.01 0.00 0.00 0.00 0.00 0.00 0.01 0.00 0.00 0.00 0.00 0.00 0.01 0.01 0.02
0.00 0.00 0.00 0.00 0.00 0.00 0.00 0.00 0.00 0.00 0.00 0.00 0.00 0.00 0.00 0.00 0.00 0.00 0.00 0.00 0.00 0.00 0.00 0.00 0.00 0.00 0.00 0.00 0.01 0.01 0.00 0.00 0.00 0.00 0.00 0.00 0.00 0.00 0.00 0.00 0.00 0.00 0.00
0.00 0.00 0.00 0.00 0.00 0.00 0.00 0.00 0.00 0.00 0.00 0.00 0.00 0.00 0.00 0.00 0.00 0.00 0.00 0.00 0.00 0.00 0.00 0.00 0.00 0.00 0.00 0.00 0.00 0.01 0.00 0.00 0.00 0.00 0.00 0.00 0.00 0.00 0.00 0.00 0.00 0.00 0.00
0.00 0.00 0.00 0.00 0.00 0.00 0.00 0.00 0.00 0.00 0.00 0.00 0.00 0.00 0.00 0.00 0.00 0.00 0.00 0.00 0.00 0.00 0.00 0.00 0.00 0.00 0.00 0.00 0.00 0.00 0.01 0.01 0.00 0.00 0.00 0.00 0.00 0.00 0.00 0.00 0.00 0.00 0.00
0.00 0.00 0.00 0.00 0.00 0.00 0.00 0.00 0.00 0.00 0.00 0.00 0.00 0.00 0.00 0.00 0.00 0.00 0.00 0.00 0.00 0.00 0.00 0.00 0.00 0.00 0.00 0.00 0.00 0.00 0.00 0.01 0.01 0.00 0.00 0.00 0.00 0.00 0.00 0.00 0.00 0.00 0.00
0.02 0.00 0.00 0.00 0.00 0.00 0.00 0.00 0.00 0.00 0.00 0.00 0.00 0.00 0.00 0.00 0.00 0.00 0.00 0.00 0.00 0.00 0.00 0.00 0.00 0.00 0.00 0.00 0.00 0.00 0.00 0.00 0.01 0.00 0.00 0.00 0.00 0.00 0.00 0.00 0.00 0.00 0.00
0.02 0.00 0.00 0.00 0.00 0.00 0.00 0.00 0.00 0.00 0.00 0.00 0.00 0.00 0.00 0.00 0.00 0.00 0.00 0.00 0.00 0.00 0.00 0.00 0.00 0.00 0.00 0.00 0.00 0.00 0.00 0.00 0.00 0.00 0.00 0.00 0.00 0.00 0.00 0.00 0.00 0.00 0.00
0.03 0.00 0.00 0.00 0.00 0.00 0.00 0.00 0.00 0.00 0.00 0.00 0.00 0.00 0.00 0.00 0.00 0.00 0.00 0.00 0.00 0.00 0.00 0.00 0.00 0.00 0.00 0.00 0.00 0.00 0.00 0.00 0.00 0.00 0.00 0.00 0.00 0.00 0.00 0.00 0.00 0.00 0.00
0.03 0.00 0.00 0.00 0.00 0.00 0.00 0.00 0.00 0.00 0.00 0.00 0.00 0.00 0.00 0.00 0.00 0.00 0.00 0.00 0.00 0.00 0.00 0.00 0.00 0.00 0.00 0.00 0.00 0.00 0.00 0.00 0.00 0.00 0.00 0.00 0.00 0.00 0.00 0.00 0.00 0.00 0.00
0.03 0.01 0.00 0.00 0.00 0.00 0.00 0.00 0.00 0.00 0.00 0.00 0.00 0.00 0.00 0.00 0.00 0.00 0.00 0.00 0.00 0.00 0.00 0.00 0.00 0.00 0.00 0.00 0.00 0.00 0.00 0.00 0.00 0.00 0.00 0.00 0.00 0.00 0.00 0.00 0.00 0.00 0.00
0.07 0.02 0.01 0.00 0.00 0.00 0.00 0.00 0.00 0.00 0.00 0.00 0.00 0.00 0.00 0.00 0.00 0.00 0.00 0.00 0.00 0.00 0.00 0.00 0.00 0.00 0.00 0.00 0.00 0.00 0.00 0.00 0.00 0.00 0.00 0.00 0.00 0.00 0.00 0.00 0.00 0.00 0.00
0.04 0.04 0.02 0.00 0.00 0.00 0.00 0.00 0.00 0.00 0.00 0.00 0.00 0.00 0.00 0.00 0.00 0.00 0.00 0.00 0.00 0.00 0.00 0.00 0.00 0.00 0.00 0.00 0.00 0.00 0.00 0.00 0.00 0.00 0.00 0.00 0.00 0.00 0.00 0.00 0.00 0.00 0.00
0.01 0.02 0.03 0.01 0.00 0.00 0.00 0.00 0.00 0.00 0.00 0.00 0.00 0.00 0.00 0.00 0.00 0.00 0.00 0.00 0.00 0.00 0.00 0.00 0.00 0.00 0.00 0.00 0.00 0.00 0.00 0.00 0.00 0.00 0.00 0.00 0.00 0.00 0.00 0.00 0.00 0.00 0.00
0.01 0.02 0.03 0.02 0.00 0.00 0.00 0.00 0.00 0.00 0.00 0.00 0.00 0.00 0.00 0.00 0.00 0.00 0.00 0.00 0.00 0.00 0.00 0.00 0.00 0.00 0.00 0.00 0.00 0.00 0.00 0.00 0.00 0.00 0.00 0.00 0.00 0.00 0.00 0.00 0.00 0.00 0.00
0.00 0.01 0.02 0.02 0.02 0.00 0.00 0.00 0.00 0.00 0.00 0.00 0.00 0.00 0.00 0.00 0.00 0.00 0.00 0.00 0.00 0.00 0.00 0.00 0.00 0.00 0.00 0.00 0.00 0.00 0.00 0.00 0.00 0.00 0.00 0.00 0.00 0.00 0.00 0.00 0.00 0.00 0.00
0.00 0.00 0.01 0.02 0.02 0.01 0.00 0.00 0.00 0.00 0.00 0.00 0.00 0.00 0.00 0.00 0.00 0.00 0.00 0.00 0.00 0.00 0.00 0.00 0.00 0.00 0.00 0.00 0.00 0.00 0.00 0.00 0.00 0.00 0.00 0.00 0.00 0.00 0.00 0.00 0.00 0.00 0.00
0.00 0.00 0.00 0.01 0.02 0.01 0.00 0.00 0.00 0.00 0.00 0.00 0.00 0.00 0.00 0.00 0.00 0.00 0.00 0.00 0.00 0.00 0.00 0.00 0.00 0.00 0.00 0.00 0.00 0.00 0.00 0.00 0.00 0.00 0.00 0.00 0.00 0.00 0.00 0.00 0.00 0.00 0.00
0.00 0.00 0.00 0.00 0.01 0.01 0.01 0.00 0.00 0.00 0.00 0.00 0.00 0.00 0.00 0.00 0.00 0.00 0.00 0.00 0.00 0.00 0.00 0.00 0.00 0.00 0.00 0.00 0.00 0.00 0.00 0.00 0.00 0.00 0.00 0.00 0.00 0.00 0.00 0.00 0.00 0.00 0.00
0.00 0.00 0.00 0.00 0.00 0.00 0.00 0.00 0.00 0.00 0.00 0.00 0.00 0.00 0.00 0.00 0.00 0.00 0.00 0.00 0.00 0.00 0.00 0.00 0.00 0.00 0.00 0.00 0.00 0.00 0.00 0.00 0.00 0.00 0.00 0.00 0.00 0.00 0.00 0.00 0.00 0.00 0.00
0.00 0.00 0.00 0.00 0.00 0.00 0.00 0.00 0.00 0.00 0.00 0.00 0.00 0.00 0.00 0.00 0.00 0.00 0.00 0.00 0.00 0.00 0.00 0.00 0.00 0.00 0.00 0.00 0.00 0.00 0.00 0.00 0.00 0.00 0.00 0.00 0.00 0.00 0.00 0.00 0.00 0.00 0.00
0.00 0.00 0.00 0.00 0.00 0.00 0.00 0.00 0.00 0.00 0.00 0.00 0.00 0.00 0.00 0.00 0.00 0.00 0.00 0.00 0.00 0.00 0.00 0.00 0.00 0.00 0.00 0.00 0.00 0.00 0.00 0.00 0.00 0.00 0.00 0.00 0.00 0.00 0.00 0.00 0.00 0.00 0.00
0.00 0.00 0.00 0.00 0.00 0.00 0.00 0.00 0.00 0.00 0.00 0.00 0.00 0.00 0.00 0.00 0.00 0.00 0.00 0.00 0.00 0.00 0.00 0.00 0.00 0.00 0.00 0.00 0.00 0.00 0.00 0.00 0.00 0.00 0.00 0.00 0.00 0.00 0.00 0.00 0.00 0.00 0.00
MSLP
1012.76 1013.56 1014.25 1014.78 1015.15 1015.55 1016.00 1016.50 1016.76 1017.40 1017.66 1018.21 1018.83 1019.29 1019.90 1020.44 1020.83 1021.09 1021.25 1021.29 1021.43 1021.67 1021.88 1022.16 1022.45 1022.58 1022.66 1022.80 1022.86 1022.92 1022.98 1023.02 1023.09 1023.19 1023.20 1023.09 1023.12 1022.99 1022.93 1022.97 1023.07 1023.02 1022.97
1012.30 1013.22 1014.09 1014.60 1015.01 1015.28 1015.75 1016.27 1016.71 1017.21 1017.65 1018.00 1018.84 1019.38 1019.90 1020.48 1020.88 1021.13 1021.39 1021.56 1021.65 1021.89 1022.07 1022.24 1022.55 1022.88 1022.93 1022.87 1023.19 1023.35 1023.40 1023.46 1023.55 1023.56 1023.62 1023.53 1023.43 1023.42 1023.42 1023.43 1023.48 1023.60 1023.56
1011.86 1012.74 1013.61 1014.31 1014.66 1015.10 1015.59 1016.08 1016.73 1017.20 1017.81 1017.93 1018.79 1019.33 1019.75 1020.30 1020.87 1021.18 1021.41 1021.72 1021.98 1022.15 1022.27 1022.64 1022.83 1023.18 1023.15 1023.08 1023.43 1023.66 1023.81 1023.90 1023.94 1023.99 1023.97 1023.98 1023.83 1023.92 1023.85 1023.99 1024.03 1024.02 1024.05
1011.48 1012.34 1013.16 1013.90 1014.38 1014.81 1015.33 1016.02 1016.75 1017.34 1017.79 1018.09 1018.64 1019.25 1019.68 1020.27 1020.84 1021.26 1021.70 1021.92 1022.28 1022.51 1022.67 1022.89 1023.10 1023.37 1023.30 1023.25 1023.60 1023.92 1024.08 1024.24 1024.32 1024.29 1024.37 1024.36 1024.38 1024.29 1024.34 1024.40 1024.37 1024.33 1024.36
1010.92 1011.63 1012.62 1013.34 1014.10 1014.47 1015.29 1015.96 1016.76 1017.23 1017.60 1017.98 1018.63 1019.35 1019.89 1020.40 1020.92 1021.49 1021.92 1022.33 1022.65 1022.83 1022.91 1023.24 1023.32 1023.54 1023.58 1023.61 1023.78 1024.09 1024.23 1024.48 1024.62 1024.57 1024.67 1024.70 1024.71 1024.70 1024.77 1024.77 1024.79 1024.74 1024.67
1010.16 1011.09 1012.01 1012.80 1013.56 1014.45 1015.37 1015.88 1016.63 1017.30 1017.74 1018.07 1018.57 1019.63 1020.27 1020.78 1021.28 1021.71 1022.02 1022.39 1022.84 1022.93 1023.06 1023.45 1023.61 1023.81 1023.89 1023.87 1023.95 1024.26 1024.46 1024.63 1024.85 1024.93 1024.97 1025.01 1024.94 1025.02 1025.12 1025.21 1025.18 1025.18 1025.20
1009.51 1010.55 1011.44 1012.33 1013.08 1013.89 1014.83 1015.58 1016.59 1017.35 1018.08 1018.08 1018.69 1019.80 1020.98 1021.36 1021.81 1022.17 1022.23 1022.68 1023.01 1023.18 1023.31 1023.59 1023.65 1023.88 1024.08 1024.11 1024.27 1024.40 1024.61 1024.82 1025.05 1025.21 1025.32 1025.30 1025.30 1025.18 1025.41 1025.49 1025.65 1025.70 1025.66
1008.88 1009.87 1010.73 1011.62 1012.44 1013.54 1014.50 1015.11 1016.01 1017.15 1017.94 1017.97 1018.58 1019.95 1021.34 1022.17 1022.33 1022.43 1022.60 1022.84 1023.18 1023.28 1023.50 1023.72 1023.86 1023.92 1024.12 1024.29 1024.42 1024.52 1024.70 1024.93 1025.18 1025.44 1025.55 1025.55 1025.60 1025.69 1025.68 1025.84 1026.02 1025.98 1026.15
1008.06 1008.94 1010.07 1010.82 1012.09 1012.97 1013.77 1014.67 1015.48 1016.26 1017.28 1018.02 1018.55 1019.01 1020.86 1021.31 1022.05 1022.65 1022.82 1022.93 1023.36 1023.62 1023.64 1023.58 1023.90 1024.09 1024.26 1024.44 1024.58 1024.77 1024.86 1025.01 1025.21 1025.55 1025.75 1025.84 1025.84 1025.93 1026.07 1026.15 1026.37 1026.48 1026.48
1007.47 1008.41 1009.38 1010.49 1011.28 1012.48 1013.41 1014.09 1014.93 1015.80 1016.79 1017.74 1018.60 1018.77 1019.18 1019.81 1021.08 1022.39 1022.95 1023.00 1023.14 1023.47 1023.59 1023.71 1023.76 1024.08 1024.25 1024.48 1024.64 1024.78 1024.91 1025.08 1025.18 1025.44 1025.76 1025.75 1025.91 1026.08 1026.23 1026.41 1026.57 1026.79 1026.89
1006.66 1007.78 1008.55 1009.82 1010.81 1011.87 1012.83 1013.68 1014.47 1015.13 1016.14 1017.20 1017.86 1018.71 1019.16 1019.71 1020.32 1021.26 1022.38 1022.92 1023.14 1023.19 1023.32 1023.46 1023.66 1023.93 1024.12 1024.38 1024.59 1024.70 1024.80 1025.04 1025.14 1025.34 1025.64 1025.77 1025.93 1026.07 1026.32 1026.54 1026.76 1026.95 1027.10
1005.90 1007.04 1008.01 1008.99 1010.19 1011.36 1012.37 1013.14 1014.07 1014.68 1015.61 1016.62 1017.49 1018.32 1018.61 1018.99 1019.83 1020.30 1021.37 1022.33 1022.73 1023.09 1023.16 1023.26 1023.47 1023.70 1023.95 1024.23 1024.35 1024.55 1024.74 1024.90 1025.00 1025.14 1025.50 1025.81 1026.06 1026.17 1026.21 1026.53 1026.79 1027.00 1027.19
1005.35 1006.09 1007.37 1008.57 1009.67 1010.57 1011.74 1012.69 1013.51 1014.32 1015.00 1015.83 1016.77 1017.62 1018.06 1018.52 1018.92 1019.45 1020.18 1021.64 1022.42 1022.93 1023.14 1023.10 1023.07 1023.26 1023.55 1023.89 1024.13 1024.37 1024.60 1024.79 1024.99 1025.15 1025.34 1025.65 1026.05 1026.31 1026.26 1026.47 1026.66 1026.91 1027.10
1004.99 1005.81 1006.57 1007.56 1009.22 1009.65 1010.62 1012.07 1013.05 1013.90 1014.75 1015.51 1016.44 1017.15 1017.55 1017.97 1018.33 1018.78 1019.45 1020.26 1021.99 1022.62 1022.72 1022.51 1022.53 1022.68 1023.03 1023.40 1023.72 1024.12 1024.44 1024.63 1024.90 1025.10 1025.24 1025.43 1025.85 1026.22 1026.37 1026.46 1026.58 1026.83 1027.04
1003.82 1005.57 1005.96 1006.96 1008.19 1009.07 1009.74 1011.23 1012.30 1013.40 1014.24 1015.09 1015.90 1016.69 1017.04 1017.48 1017.84 1018.31 1018.91 1019.44 1019.82 1021.21 1022.05 1021.96 1022.05 1022.02 1022.42 1022.92 1023.31 1023.83 1024.18 1024.47 1024.72 1024.95 1025.18 1025.37 1025.65 1025.99 1026.30 1026.44 1026.65 1026.79 1027.01
1006.59 1005.59 1005.59 1006.72 1007.68 1008.34 1009.12 1010.48 1011.61 1012.82 1013.66 1014.61 1015.38 1016.09 1016.68 1017.07 1017.44 1017.95 1018.54 1019.00 1019.47 1019.98 1020.89 1020.92 1021.10 1021.09 1021.75 1022.36 1022.87 1023.38 1023.80 1024.15 1024.43 1024.73 1025.00 1025.23 1025.50 1025.74 1025.97 1026.16 1026.40 1026.66 1026.84
1006.90 1006.84 1005.30 1005.95 1006.94 1007.48 1008.57 1009.75 1010.83 1011.87 1012.84 1013.77 1014.53 1015.41 1016.10 1016.59 1017.06 1017.55 1018.03 1018.48 1019.08 1019.46 1020.17 1020.64 1020.63 1020.74 1021.53 1022.01 1022.79 1023.05 1023.46 1023.94 1024.19 1024.41 1024.66 1024.96 1025.25 1025.47 1025.69 1025.91 1026.10 1026.34 1026.57
1006.13 1006.01 1005.92 1004.95 1005.97 1006.78 1007.77 1009.06 1010.08 1011.06 1011.94 1012.88 1013.59 1014.55 1015.32 1015.92 1016.55 1016.94 1017.45 1017.98 1018.41 1018.82 1019.31 1020.16 1020.44 1020.80 1021.05 1021.40 1022.07 1022.83 1023.18 1023.47 1023.81 1024.00 1024.20 1024.52 1024.86 1025.16 1025.32 1025.51 1025.76 1026.00 1026.15
1006.53 1006.10 1006.35 1004.98 1004.74 1006.10 1007.10 1008.33 1009.32 1010.35 1011.14 1011.80 1012.54 1013.37 1014.39 1015.08 1015.87 1016.41 1016.90 1017.52 1017.93 1018.34 1018.69 1019.32 1020.08 1020.33 1020.82 1021.41 1022.22 1022.64 1022.98 1023.24 1023.45 1023.60 1023.87 1024.13 1024.44 1024.73 1024.89 1025.11 1025.27 1025.53 1025.76
1007.68 1006.41 1005.60 1005.63 1004.51 1005.38 1006.09 1007.40 1008.64 1009.61 1010.43 1011.13 1011.81 1012.47 1013.39 1014.27 1014.88 1015.52 1016.33 1016.90 1017.43 1018.03 1018.43 1018.89 1019.39 1019.88 1020.30 1021.07 1021.60 1022.29 1022.86 1023.04 1023.27 1023.37 1023.53 1023.68 1023.94 1024.15 1024.38 1024.63 1024.87 1025.08 1025.29
1007.67 1006.75 1004.97 1005.92 1004.22 1005.04 1005.20 1006.65 1007.96 1008.83 1009.63 1010.35 1011.13 1011.87 1012.66 1013.39 1014.03 1014.59 1015.40 1016.25 1016.84 1017.44 1017.92 1018.49 1018.95 1019.30 1019.85 1020.55 1020.87 1021.52 1022.17 1022.42 1022.92 1022.97 1023.37 1023.53 1023.73 1023.88 1024.00 1024.18 1024.36 1024.57 1024.73
1008.27 1007.65 1005.53 1006.53 1004.52 1004.64 1005.58 1005.51 1007.23 1008.10 1008.75 1009.41 1010.27 1011.18 1011.98 1012.82 1013.37 1013.93 1014.54 1015.20 1015.78 1016.41 1017.06 1017.51 1018.03 1018.40 1018.70 1019.41 1020.16 1020.91 1021.47 1022.24 1022.82 1022.33 1022.83 1023.13 1023.17 1023.26 1023.21 1023.48 1023.49 1023.81 1023.95
1009.30 1007.86 1006.74 1006.94 1006.92 1006.58 1006.61 1006.66 1006.55 1007.35 1008.25 1008.79 1009.56 1010.40 1011.27 1012.12 1012.76 1013.48 1014.02 1014.55 1015.09 1015.41 1015.76 1016.29 1016.81 1017.25 1017.80 1018.25 1019.19 1019.92 1020.50 1020.96 1021.14 1021.17 1021.78 1022.36 1022.52 1022.45 1022.44 1022.50 1022.65 1022.99 1023.30
1010.72 1009.90 1008.16 1008.00 1007.60 1007.98 1006.77 1006.99 1007.10 1006.83 1007.65 1008.16 1008.63 1009.38 1010.11 1010.96 1011.87 1012.64 1013.41 1014.06 1014.54 1014.86 1015.14 1015.52 1015.81 1016.28 1016.53 1017.27 1017.88 1018.14 1018.88 1019.70 1020.55 1020.65 1020.85 1021.51 1021.43 1021.63 1021.45 1021.55 1021.66 1021.91 1022.26
1011.25 1010.28 1009.76 1009.37 1009.34 1008.96 1007.90 1007.49 1007.34 1007.24 1007.45 1007.87 1008.21 1008.74 1009.28 1010.02 1010.80 1011.64 1012.33 1013.14 1013.78 1014.04 1014.44 1014.71 1014.95 1015.39 1015.81 1016.27 1016.74 1017.96 1018.83 1019.75 1020.16 1019.99 1020.22 1020.42 1020.71 1020.98 1021.13 1021.06 1020.86 1021.06 1021.50
1012.69 1011.76 1011.08 1011.42 1011.35 1010.35 1009.59 1008.48 1008.33 1008.48 1008.37 1008.20 1007.88 1008.30 1008.77 1009.33 1009.96 1010.71 1011.34 1012.08 1012.77 1013.24 1013.93 1014.65 1015.11 1015.30 1015.47 1015.71 1016.03 1016.38 1017.16 1018.22 1018.65 1019.13 1018.95 1019.95 1020.28 1020.59 1021.01 1020.17 1019.99 1020.28 1020.89
Thickness
5695 5692 5692 5692 5694 5696 5697 5697 5700 5700 5702 5701 5700 5699 5697 5696 5695 5695 5695 5694 5693 5691 5688 5686 5684 5682 5681 5679 5678 5676 5674 5672 5670 5667 5665 5663 5660 5659 5657 5655 5652 5650 5648
5689 5689 5687 5687 5690 5693 5694 5694 5695 5696 5699 5699 5696 5695 5694 5693 5692 5693 5692 5691 5690 5688 5686 5684 5682 5680 5679 5679 5676 5674 5673 5671 5668 5666 5664 5662 5660 5658 5656 5654 5651 5648 5647
5684 5684 5683 5683 5686 5689 5689 5690 5690 5693 5693 5696 5693 5691 5692 5691 5689 5689 5689 5687 5686 5686 5685 5681 5680 5678 5677 5677 5675 5673 5671 5669 5668 5666 5663 5661 5660 5657 5655 5651 5649 5647 5645
5676 5678 5678 5678 5681 5684 5684 5686 5685 5687 5689 5692 5690 5689 5688 5687 5685 5685 5685 5684 5682 5682 5681 5678 5677 5676 5676 5676 5673 5671 5670 5668 5666 5665 5663 5661 5658 5656 5653 5650 5648 5647 5645
5670 5675 5674 5675 5676 5681 5679 5682 5679 5683 5685 5687 5687 5684 5683 5683 5682 5680 5679 5679 5678 5679 5679 5675 5674 5673 5673 5673 5671 5670 5669 5667 5665 5664 5662 5660 5658 5656 5653 5650 5648 5646 5644
5667 5669 5668 5672 5672 5673 5672 5676 5674 5676 5678 5681 5683 5677 5676 5677 5677 5676 5675 5676 5675 5676 5676 5673 5671 5670 5670 5670 5670 5668 5667 5665 5664 5663 5661 5660 5659 5656 5652 5650 5648 5645 5642
5663 5663 5665 5668 5670 5671 5672 5672 5669 5669 5668 5676 5675 5671 5666 5668 5668 5670 5672 5672 5671 5671 5671 5670 5670 5668 5668 5667 5666 5666 5664 5663 5662 5660 5659 5659 5657 5656 5653 5650 5646 5643 5641
5659 5660 5664 5666 5670 5667 5666 5669 5669 5664 5664 5671 5671 5665 5656 5658 5661 5665 5666 5667 5667 5668 5668 5667 5667 5666 5666 5665 5664 5663 5662 5661 5660 5658 5657 5657 5656 5654 5652 5650 5646 5644 5640
5659 5661 5662 5666 5664 5665 5666 5666 5668 5667 5664 5664 5667 5667 5655 5662 5662 5660 5661 5664 5664 5664 5665 5666 5664 5663 5663 5663 5662 5660 5660 5659 5657 5656 5654 5654 5654 5653 5651 5648 5645 5642 5640
5655 5656 5661 5660 5664 5662 5662 5665 5665 5664 5661 5659 5660 5664 5666 5666 5657 5658 5657 5659 5662 5662 5663 5663 5663 5662 5661 5660 5660 5659 5658 5657 5656 5654 5652 5653 5652 5651 5649 5647 5644 5641 5638
5655 5654 5662 5657 5657 5659 5659 5661 5662 5665 5662 5657 5658 5658 5662 5664 5661 5659 5659 5656 5658 5660 5661 5662 5661 5661 5660 5659 5658 5658 5657 5655 5654 5653 5651 5650 5649 5648 5647 5645 5643 5640 5638
5651 5652 5656 5656 5653 5654 5654 5658 5658 5661 5658 5655 5655 5654 5660 5663 5660 5661 5657 5658 5658 5658 5659 5660 5659 5659 5658 5657 5656 5656 5655 5654 5653 5652 5650 5648 5646 5646 5645 5643 5641 5639 5637
5643 5650 5649 5648 5647 5651 5651 5653 5654 5655 5657 5657 5656 5656 5658 5661 5662 5663 5664 5657 5656 5653 5655 5657 5658 5658 5657 5656 5655 5654 5653 5652 5651 5649 5648 5646 5644 5642 5643 5641 5640 5637 5635
5637 5644 5648 5649 5642 5651 5653 5650 5649 5649 5650 5652 5650 5651 5655 5657 5660 5663 5663 5661 5650 5651 5652 5657 5658 5658 5657 5656 5654 5652 5651 5650 5649 5647 5646 5645 5643 5640 5639 5639 5638 5635 5634
5627 5633 5641 5643 5643 5645 5650 5647 5647 5645 5646 5647 5647 5646 5651 5654 5656 5659 5659 5661 5663 5654 5652 5653 5656 5658 5657 5654 5653 5650 5649 5648 5647 5645 5644 5643 5641 5639 5637 5636 5634 5633 5631
5603 5622 5632 5632 5635 5641 5646 5643 5643 5640 5640 5640 5642 5642 5645 5649 5653 5654 5655 5657 5659 5657 5654 5657 5657 5660 5656 5653 5651 5648 5647 5645 5644 5643 5641 5640 5639 5637 5636 5635 5633 5631 5629
5593 5600 5625 5627 5630 5638 5639 5637 5639 5639 5638 5638 5640 5638 5640 5643 5647 5650 5651 5654 5655 5655 5652 5652 5655 5656 5653 5651 5648 5646 5644 5642 5641 5640 5639 5638 5636 5635 5634 5633 5631 5629 5627
5587 5598 5596 5621 5627 5633 5634 5631 5632 5635 5636 5636 5640 5638 5638 5641 5641 5645 5648 5648 5652 5652 5652 5648 5649 5649 5649 5648 5647 5642 5641 5638 5638 5637 5637 5636 5634 5632 5631 5630 5628 5626 5625
5578 5584 5590 5612 5626 5625 5628 5627 5627 5627 5631 5635 5637 5638 5635 5637 5638 5639 5644 5643 5646 5647 5648 5647 5644 5645 5644 5643 5638 5637 5636 5635 5633 5634 5633 5632 5630 5629 5628 5626 5625 5623 5622
5555 5574 5588 5598 5619 5621 5625 5623 5622 5621 5624 5627 5630 5632 5633 5632 5636 5637 5637 5639 5639 5640 5641 5642 5641 5641 5642 5637 5636 5633 5629 5629 5629 5629 5629 5629 5628 5627 5625 5622 5621 5621 5619
5544 5563 5585 5587 5613 5614 5620 5616 5614 5616 5618 5621 5624 5625 5627 5628 5631 5635 5634 5633 5634 5635 5635 5636 5635 5635 5635 5632 5634 5629 5628 5626 5624 5625 5623 5622 5623 5624 5622 5619 5618 5616 5615
5529 5543 5572 5571 5603 5607 5602 5609 5607 5610 5613 5617 5618 5619 5620 5619 5623 5627 5629 5630 5632 5633 5632 5635 5634 5635 5636 5632 5629 5627 5622 5618 5616 5620 5617 5618 5620 5620 5619 5617 5616 5613 5613
5513 5531 5553 5560 5564 5573 5582 5589 5598 5602 5603 5608 5611 5612 5613 5613 5615 5619 5621 5623 5625 5629 5631 5633 5633 5633 5630 5631 5625 5620 5621 5619 5618 5618 5618 5618 5617 5618 5615 5614 5614 5611 5609
5491 5507 5531 5541 5548 5552 5571 5577 5582 5595 5595 5601 5606 5608 5610 5611 5611 5613 5615 5616 5618 5621 5623 5626 5630 5629 5629 5625 5624 5625 5621 5616 5614 5616 5617 5614 5613 5615 5613 5613 5612 5612 5609
5475 5492 5505 5519 5525 5536 5552 5562 5569 5577 5585 5590 5595 5601 5605 5606 5607 5607 5611 5610 5611 5614 5615 5619 5622 5623 5623 5622 5621 5613 5609 5605 5606 5611 5610 5612 5611 5609 5606 5608 5609 5608 5605
5450 5470 5488 5491 5495 5512 5526 5542 5549 5553 5560 5571 5585 5590 5593 5598 5598 5600 5604 5604 5604 5608 5607 5607 5609 5613 5616 5616 5616 5614 5612 5605 5606 5604 5610 5605 5601 5599 5597 5605 5606 5604 5599